Wind_Speed
17 17 18 16 15 17 18 19 20 23 27 29 30 32 32 32 31 31 31 33 34 33 32 31 31 32 31 30 28 27 26 24 23 23 23 22 20 20 20 19 19 18 17 17 16 16 16 16 16 15 15 14 14 13 12 11 10 9 8 8 7 6 7
16 17 18 17 16 18 19 20 22 25 27 29 30 32 32 32 32 32 31 33 35 35 34 33 32 32 31 30 28 28 27 25 24 24 23 22 21 20 20 19 19 19 18 17 16 16 16 17 17 16 15 15 15 14 14 13 12 11 10 9 9 8 8
18 18 18 18 17 18 18 19 22 25 27 29 30 32 33 34 34 34 32 33 34 34 34 33 33 32 31 30 29 28 28 26 26 25 24 23 22 21 20 20 19 18 19 18 17 16 17 17 17 17 17 16 15 15 15 14 13 12 11 10 10 9 9
18 17 16 17 17 17 17 18 21 25 27 30 32 33 34 34 34 34 33 33 34 35 35 35 33 32 32 31 30 29 29 28 27 26 25 24 23 22 20 20 20 19 19 19 18 18 17 17 18 18 18 17 16 15 15 15 14 13 13 12 11 10 10
17 18 16 17 16 14 14 17 21 25 28 30 32 32 33 34 34 33 33 33 34 35 35 35 33 31 32 32 30 29 30 30 29 27 26 24 22 22 21 21 20 20 19 19 19 19 18 18 18 18 18 18 17 17 16 16 15 15 14 14 13 12 11
17 17 15 15 16 15 16 18 23 28 30 30 32 32 32 33 34 34 33 33 33 34 34 34 33 32 33 32 30 29 30 31 30 28 26 25 23 22 22 21 21 21 20 19 19 20 19 19 19 19 19 18 18 17 17 17 16 16 15 15 14 13 12
17 16 16 15 16 18 18 18 22 28 29 29 30 30 31 32 33 33 33 33 33 34 34 35 34 34 33 33 31 31 31 31 31 29 27 25 24 23 22 22 22 21 21 21 20 20 20 20 20 19 19 19 18 18 18 18 17 17 16 16 15 14 13
17 16 16 17 17 18 17 16 19 25 28 27 28 30 31 32 32 33 33 33 34 34 35 35 35 34 33 33 32 32 33 32 31 30 28 26 25 24 23 23 23 22 21 21 21 20 20 21 21 20 20 19 19 18 18 18 18 18 17 17 16 16 15
17 15 15 17 18 17 17 17 20 23 26 27 28 30 31 31 32 33 34 33 34 34 35 35 35 34 33 32 33 33 32 32 31 30 29 27 26 26 25 24 23 23 22 22 22 21 21 21 21 21 21 20 19 19 19 18 19 18 18 18 17 17 16
15 15 15 17 17 16 17 18 18 18 21 24 26 28 30 31 31 32 32 33 34 35 36 35 34 34 33 33 33 33 32 32 31 31 30 29 27 27 26 25 24 24 24 23 22 22 22 21 21 21 22 21 20 20 20 19 19 19 18 18 18 18 18
11 12 15 17 16 17 17 16 15 14 16 20 25 28 30 31 31 31 32 33 34 34 35 35 34 34 34 34 33 34 34 33 32 32 31 31 29 28 28 26 25 25 25 25 24 23 23 22 22 22 22 22 21 21 21 21 20 20 19 18 18 18 18
3 4 12 16 16 16 15 14 15 15 15 20 26 27 28 30 30 30 31 32 32 32 33 34 34 34 34 34 34 34 35 34 33 33 33 32 30 29 28 28 26 25 25 25 25 24 23 23 23 23 23 22 22 22 22 21 21 21 20 19 19 19 19
2 0 6 10 10 10 10 11 16 17 17 21 25 26 27 29 29 29 30 30 30 30 32 33 33 34 34 33 34 35 35 35 35 34 33 33 31 29 28 28 27 26 25 25 25 25 24 24 24 24 24 23 23 23 23 22 22 21 21 21 20 20 19
2 3 4 5 6 7 7 9 14 15 16 20 24 25 26 28 29 29 29 30 30 29 31 32 33 34 34 33 33 34 35 36 35 34 33 32 31 29 28 28 28 27 26 25 25 26 25 25 24 24 24 24 24 23 23 23 22 22 22 22 21 20 20
4 7 9 9 8 9 9 10 12 14 16 19 23 25 25 26 28 28 28 29 30 30 31 32 32 33 33 33 33 34 34 34 33 32 32 31 31 30 28 28 28 27 26 25 25 25 25 25 24 24 23 24 24 24 23 23 23 23 23 23 22 22 21
2 3 5 6 7 8 10 11 12 14 15 16 20 23 24 25 26 28 29 30 31 31 31 31 32 33 33 33 33 32 32 32 31 31 32 31 31 31 29 28 28 28 27 26 25 25 25 25 25 24 24 24 24 24 24 24 23 25 27 26 25 23 22
5 6 6 5 3 1 3 7 10 12 14 15 19 23 23 24 26 28 29 29 31 31 31 32 32 32 32 31 31 31 31 31 31 31 32 31 30 31 30 28 28 28 28 27 26 25 25 25 25 25 24 24 24 24 24 24 24 27 30 30 28 25 22
7 7 7 7 8 8 6 6 9 12 15 17 20 24 24 24 25 27 28 30 32 32 31 32 32 31 31 30 30 31 31 31 31 31 31 31 30 30 30 29 28 28 28 27 26 25 24 25 25 25 24 24 24 24 24 23 25 28 31 32 31 28 24
9 8 8 9 9 9 9 8 7 9 14 18 21 24 26 27 26 27 29 29 30 31 30 30 31 31 30 29 29 30 31 31 31 31 31 31 31 30 30 29 28 28 28 27 26 25 24 25 25 25 24 23 23 24 23 23 24 28 31 32 33 32 27
8 7 8 9 9 8 9 9 8 10 11 15 21 24 26 28 27 27 27 27 28 29 29 29 29 30 30 29 29 30 30 30 30 30 31 31 30 29 29 30 29 27 26 26 25 24 24 24 24 25 25 24 23 23 23 23 24 27 30 31 32 33 32
8 8 9 9 9 9 9 9 9 12 14 15 19 23 25 26 27 27 26 28 29 30 29 29 29 29 29 29 29 30 31 31 30 29 30 30 30 29 29 29 28 27 26 25 25 24 24 24 24 24 25 25 24 23 22 22 24 26 28 30 30 31 33
10 11 11 11 11 11 11 11 12 13 14 16 18 21 25 27 28 28 27 28 30 30 30 29 28 29 29 29 30 30 32 32 31 30 29 29 29 29 29 29 28 27 25 24 24 24 23 23 24 24 24 25 25 24 23 23 24 25 26 28 28 28 30
12 13 13 13 14 15 15 15 15 15 15 16 18 20 24 27 28 28 28 28 29 30 30 30 29 30 30 30 30 31 31 32 31 30 29 29 29 28 28 28 27 27 25 24 24 24 23 23 23 23 24 24 25 25 25 24 25 27 27 27 27 27 29
13 14 14 15 16 17 19 17 16 17 16 15 18 20 22 26 28 28 28 28 29 30 31 31 31 31 31 31 31 31 31 31 30 29 29 29 29 28 28 27 26 26 25 24 24 24 24 23 23 23 24 25 26 26 25 25 27 29 30 30 29 29 30
14 15 16 17 17 18 19 20 19 20 20 16 17 20 21 25 29 29 28 29 30 31 31 32 33 32 32 32 31 30 30 30 30 30 29 29 29 28 27 27 26 25 25 24 24 24 24 23 23 23 24 24 25 27 26 25 27 29 31 32 32 32 31
15 16 17 19 19 19 20 21 19 18 18 16 16 20 22 25 28 28 28 29 30 31 32 33 34 33 31 31 30 29 29 29 30 30 29 29 28 27 26 26 25 24 24 24 23 23 23 24 23 23 24 23 24 26 26 25 25 28 31 32 33 34 33
18 18 19 19 20 21 21 19 18 17 16 15 15 18 21 25 26 26 27 28 28 30 32 32 31 30 30 30 29 29 29 28 29 29 28 27 27 26 25 25 24 24 24 23 22 22 22 23 23 23 23 23 23 23 24 25 25 26 29 32 33 34 34
18 19 19 19 19 21 20 17 17 16 14 13 14 17 21 24 24 23 24 26 28 30 30 29 29 29 29 29 29 28 28 28 28 27 26 25 26 26 25 25 24 24 23 22 21 21 21 21 22 22 21 22 22 22 22 24 25 26 27 29 32 33 34
17 17 18 18 18 19 20 18 17 14 13 13 14 17 21 23 22 22 23 25 27 27 26 26 28 29 28 28 28 28 27 27 27 26 25 25 26 26 25 25 24 23 23 22 21 21 21 20 20 20 20 20 20 21 20 21 23 26 27 28 29 31 34
17 16 17 18 19 20 21 19 15 13 12 13 13 16 19 22 21 20 22 23 23 23 24 25 27 27 27 27 27 27 26 25 26 25 24 24 25 25 24 24 23 22 22 22 21 20 20 20 20 19 19 19 19 19 20 20 21 24 26 27 27 29 31
18 17 16 17 18 20 22 17 10 9 9 11 13 14 16 20 21 20 20 21 22 22 23 24 26 26 25 26 26 25 25 24 24 24 23 23 24 24 23 23 23 22 22 21 21 20 20 20 20 19 18 19 18 18 20 21 20 22 25 26 27 28 29
17 18 17 17 19 21 22 15 6 5 6 7 11 15 16 18 20 20 19 20 21 22 23 23 24 24 23 24 24 25 24 23 23 23 22 22 23 22 22 22 22 21 21 21 21 20 20 20 20 19 19 19 18 18 19 20 20 20 23 26 27 28 29
16 17 16 17 19 20 20 16 9 4 4 3 4 10 15 17 18 18 20 21 22 23 23 23 23 22 22 22 23 23 24 23 22 22 22 22 22 21 21 21 21 21 21 22 21 21 20 20 20 20 19 19 18 18 18 19 20 20 21 25 30 32 31
15 16 15 17 19 19 17 16 14 12 8 5 3 1 7 13 15 16 19 21 22 23 23 22 22 21 21 22 22 22 23 22 22 21 21 21 22 20 20 21 21 21 22 22 21 21 21 21 20 20 20 19 19 19 19 19 21 22 20 22 28 33 33
15 16 15 15 17 18 17 16 17 18 15 11 8 7 2 5 10 14 17 19 21 22 23 22 21 21 21 21 21 21 21 21 21 21 20 21 20 18 17 18 19 20 20 21 22 22 20 21 21 20 20 20 19 19 20 20 20 21 20 20 22 26 30
15 16 15 15 17 18 18 18 18 19 19 16 11 8 7 5 2 6 12 16 19 21 22 21 21 21 22 21 20 20 20 20 20 20 20 20 19 17 16 15 15 16 16 18 22 23 20 19 19 18 19 19 16 14 16 17 15 15 17 19 20 21 24
15 15 14 15 18 19 19 19 20 20 22 20 15 12 12 12 9 5 1 6 13 18 20 20 20 20 20 19 18 19 20 19 19 19 19 20 19 19 18 15 13 12 12 13 17 20 19 17 15 14 15 16 14 12 12 11 9 10 14 17 19 21 22
15 15 14 14 18 19 19 20 19 20 22 22 19 17 16 16 14 10 8 4 5 15 19 19 19 19 18 17 17 19 19 18 18 18 19 19 18 18 18 16 13 11 9 9 12 15 17 17 14 11 11 12 13 13 12 11 10 10 13 15 16 17 18
Wind_Direction
197 194 188 192 196 201 195 184 185 186 185 186 187 188 188 187 186 185 183 183 182 183 183 182 182 183 184 184 184 185 188 192 195 200 204 206 206 204 201 199 200 201 202 202 202 201 201 200 202 201 201 202 204 204 205 204 204 205 207 209 211 216 220
200 204 192 185 194 202 193 183 185 186 187 187 187 189 189 187 187 186 185 183 183 183 183 182 182 182 183 182 183 185 188 192 196 198 201 204 205 205 204 202 201 201 203 206 203 200 199 196 197 199 198 201 202 201 203 204 203 204 207 209 212 214 218
197 205 192 179 190 199 189 183 186 187 189 188 188 189 189 188 187 186 185 183 183 183 182 184 183 182 181 181 182 184 187 192 196 197 199 201 202 203 203 202 202 201 202 205 203 199 198 195 195 196 197 199 201 201 204 205 204 206 206 209 214 215 217
193 200 190 179 188 194 188 185 185 187 190 190 191 191 190 189 187 186 186 184 183 183 182 184 184 182 181 180 181 184 188 192 195 197 199 201 200 200 201 200 200 201 201 201 202 200 197 195 195 196 197 197 199 201 204 205 205 206 206 208 213 216 218
196 201 193 182 184 190 195 191 185 188 191 191 192 192 191 189 187 187 187 185 185 185 184 184 183 182 181 181 183 185 188 191 194 196 198 199 199 198 199 200 198 200 201 199 200 199 196 195 195 196 196 197 199 201 202 203 203 203 204 207 211 216 219
199 200 195 183 177 186 202 200 190 189 191 191 191 192 191 190 189 189 188 187 187 186 184 184 183 182 182 183 185 185 187 190 193 195 197 197 197 196 197 199 198 199 199 198 198 197 195 196 196 195 197 198 200 203 202 200 200 200 201 204 209 215 219
203 200 195 187 179 184 197 205 197 190 191 191 190 189 191 192 191 191 189 188 187 186 185 185 185 184 183 184 184 184 186 189 192 194 195 196 196 196 196 197 198 198 198 198 198 197 196 197 197 196 198 200 202 204 203 200 199 199 199 202 206 211 218
206 201 193 190 187 183 189 205 205 193 189 190 189 189 191 192 192 192 192 190 188 187 187 187 186 185 184 183 184 185 186 188 190 192 194 195 195 196 197 196 197 198 197 197 197 197 197 197 198 198 199 201 202 203 203 200 199 200 199 201 204 207 213
202 197 193 196 195 187 186 202 206 192 185 188 190 189 190 192 193 194 193 191 188 188 188 187 187 185 183 183 184 185 185 186 188 190 192 195 196 197 198 196 196 196 196 197 197 197 198 198 199 199 199 201 201 200 201 199 199 201 201 202 204 207 211
198 192 194 199 201 194 190 197 199 190 184 187 189 189 190 192 194 194 194 192 191 191 189 187 186 184 182 183 184 184 185 186 188 190 192 195 196 198 199 197 196 195 196 198 198 197 197 198 199 198 198 201 201 198 199 199 199 201 204 204 204 207 211
198 196 193 195 200 202 197 189 186 186 183 185 189 190 190 191 193 194 194 194 193 191 189 186 185 184 183 184 184 184 186 187 189 191 193 195 197 198 199 199 197 195 196 198 200 199 196 197 198 197 196 199 199 198 198 199 200 201 204 206 206 208 211
191 204 189 188 196 206 202 182 176 184 181 184 190 190 189 191 193 194 195 196 194 191 189 187 185 184 183 184 185 185 187 188 190 192 193 195 197 198 198 200 199 196 196 198 200 200 197 196 197 197 196 197 198 198 198 199 200 202 205 207 208 208 211
359 274 169 178 193 208 208 177 170 179 180 184 191 190 189 191 193 195 195 195 196 192 189 188 186 184 183 184 186 186 187 189 191 193 194 194 196 197 198 200 199 198 196 197 199 200 199 197 196 197 196 196 197 198 198 199 200 202 204 207 209 208 211
220 207 161 170 194 202 206 179 167 177 183 185 190 191 191 192 193 194 194 193 195 194 191 189 187 185 184 184 186 186 187 189 190 192 193 193 195 197 199 200 200 198 196 196 198 200 201 200 197 196 196 196 197 198 198 199 199 201 202 205 208 209 210
202 198 179 179 190 191 200 193 176 179 185 187 191 193 193 193 193 194 193 192 194 194 192 189 187 186 185 185 186 186 186 187 189 191 192 193 194 197 199 199 199 199 196 195 198 199 201 203 200 197 196 197 197 198 199 199 200 201 201 202 205 208 210
274 225 176 164 180 186 192 196 187 183 186 190 194 195 195 193 192 194 194 192 193 194 191 188 188 188 187 186 187 185 184 185 186 188 190 191 193 195 197 198 198 198 197 196 197 199 200 203 203 201 198 197 197 198 199 201 202 202 203 203 203 205 209
354 351 358 10 346 299 204 205 199 190 190 194 196 198 199 195 193 195 195 193 193 194 191 188 188 188 188 187 186 183 182 183 184 186 187 189 190 192 194 197 197 198 198 196 197 199 199 200 203 205 202 200 199 199 201 204 204 204 206 207 206 204 207
340 345 339 339 337 337 318 255 219 201 198 201 200 199 200 199 195 195 196 194 193 193 191 189 188 188 188 187 185 183 182 182 183 184 184 186 187 188 191 195 197 198 198 197 197 197 198 199 202 205 205 204 203 203 204 206 206 207 209 211 211 207 206
320 324 318 319 324 322 308 288 256 221 210 206 205 204 202 200 197 197 197 195 192 192 191 189 188 188 187 187 185 183 182 181 181 182 183 183 184 185 187 191 195 197 197 197 197 196 198 200 201 203 206 207 207 207 208 210 209 209 211 213 214 211 207
313 310 305 309 315 311 305 308 304 285 259 227 214 211 207 202 199 198 196 192 191 192 192 189 187 187 187 187 186 184 183 182 181 181 182 182 182 183 185 189 193 195 195 196 196 196 199 200 201 202 204 207 209 209 211 213 212 211 212 215 217 215 210
320 315 310 307 309 306 301 301 292 285 282 260 230 216 209 206 200 196 193 190 189 191 191 188 186 186 186 187 186 185 186 185 184 182 181 181 181 182 185 187 190 192 194 196 198 198 199 200 201 202 203 205 208 210 212 216 216 213 214 216 219 218 215
325 322 317 311 308 304 300 297 287 276 274 270 251 224 209 206 202 194 191 189 187 189 189 187 185 185 185 187 187 186 187 188 187 184 181 181 182 183 185 187 188 190 193 197 201 201 200 201 203 203 203 204 207 210 213 217 218 217 216 217 218 218 216
325 320 315 311 309 306 301 296 290 283 270 260 255 235 211 203 201 194 189 188 187 187 187 187 186 185 185 187 187 186 187 188 188 185 182 182 183 184 186 186 187 189 192 196 201 203 202 203 205 205 205 205 206 209 213 217 220 220 218 217 216 214 213
327 321 316 314 310 305 303 302 300 297 283 258 247 240 218 200 196 192 187 186 185 185 186 187 187 186 185 187 187 186 187 188 186 184 183 184 185 186 186 186 186 188 191 195 202 206 207 207 208 209 209 208 208 209 211 216 220 220 218 217 215 213 211
329 323 316 314 309 305 308 311 308 300 288 265 242 237 222 199 192 191 187 185 184 184 187 188 187 187 186 186 186 186 187 188 186 185 185 185 187 187 186 186 188 189 191 197 203 208 211 211 212 213 213 213 213 211 211 216 220 219 217 216 216 214 210
330 324 317 314 313 314 312 309 301 288 276 260 241 232 218 199 192 191 187 185 184 185 189 190 188 187 186 184 184 186 187 188 187 186 187 187 187 188 188 188 189 190 193 198 203 208 212 214 215 218 218 218 218 215 213 215 219 219 217 215 216 216 211
329 325 320 316 316 317 310 301 296 286 270 256 241 226 212 199 193 190 187 185 186 189 191 190 187 184 183 183 184 186 187 187 187 187 187 187 186 187 188 188 190 191 192 197 202 205 211 214 217 220 221 221 221 220 217 215 217 219 218 216 216 216 212
331 327 322 318 317 316 310 300 294 285 266 249 234 217 207 200 193 188 185 186 190 193 191 186 183 182 182 182 184 185 185 186 186 185 187 187 185 185 187 188 190 191 192 197 201 202 206 211 214 219 222 222 222 223 221 218 216 217 219 217 217 217 215
329 323 321 321 319 317 315 307 294 281 261 242 225 212 205 198 190 186 186 189 193 193 188 183 182 181 180 180 182 183 183 184 183 183 186 187 185 185 186 187 189 190 191 194 196 198 202 205 209 214 219 221 221 220 220 219 216 216 218 218 217 217 217
327 324 324 323 320 321 320 307 285 267 254 237 218 205 200 195 189 186 188 191 194 192 187 183 180 179 179 179 179 180 181 181 180 182 185 186 184 184 184 185 186 188 190 192 194 197 200 201 204 210 215 218 220 218 217 217 217 218 219 218 217 217 218
326 325 325 325 326 329 327 312 278 256 256 234 207 194 196 196 193 190 191 192 192 190 186 181 178 178 178 178 178 178 178 178 178 181 184 184 182 182 184 184 186 187 188 191 194 196 199 200 202 206 211 217 219 219 219 219 218 221 222 220 219 219 218
326 330 334 338 339 337 337 333 307 274 285 247 201 190 194 199 197 193 194 193 190 187 183 178 175 177 177 176 177 176 176 176 176 179 183 183 183 184 185 184 186 187 188 190 194 198 200 202 204 206 209 214 218 219 220 219 217 219 220 218 217 219 220
330 338 340 340 340 341 346 354 1 354 329 302 202 189 195 199 199 196 194 194 191 186 181 175 174 175 175 175 175 175 175 175 174 177 182 184 184 185 186 187 188 189 189 192 195 198 201 203 205 206 206 209 214 216 218 218 217 217 216 212 212 215 218
332 338 339 341 346 351 356 2 14 24 22 14 11 308 210 202 199 196 194 194 192 184 176 174 172 172 173 174 173 174 175 173 174 178 182 184 185 186 187 190 192 192 192 195 198 199 201 203 204 205 206 207 209 212 215 218 219 218 212 205 207 210 211
332 334 340 351 358 2 3 6 13 20 23 28 28 12 343 198 193 192 191 192 189 180 175 174 172 172 175 174 173 174 173 172 176 181 183 183 183 182 181 186 192 194 192 195 200 203 203 202 203 206 208 210 211 213 216 219 221 221 216 206 204 205 206
330 330 341 2 12 11 10 12 13 13 15 19 28 37 39 43 97 180 189 191 186 179 176 175 174 175 177 175 172 172 171 173 178 182 186 185 177 167 164 170 181 189 187 188 196 202 203 202 203 206 209 212 215 218 222 222 220 218 212 204 197 194 198
333 331 336 3 20 18 14 15 15 13 12 11 20 41 47 40 41 55 147 199 189 182 178 176 177 178 178 175 172 169 169 174 179 181 188 190 177 163 160 160 164 176 181 180 188 197 201 200 198 197 199 202 203 205 211 210 202 197 193 189 186 184 187
342 339 342 14 30 24 17 15 14 13 12 11 17 32 39 33 29 31 24 16 192 189 183 179 180 181 177 173 170 167 168 175 180 181 188 193 184 169 163 161 158 158 162 166 177 190 200 202 199 193 187 184 182 182 182 174 167 171 174 174 178 181 183
Height
706 706 713 716 717 719 716 714 719 723 728 733 737 742 746 750 754 757 761 765 769 774 778 781 785 788 792 795 798 802 805 809 812 814 817 819 821 822 824 826 827 829 831 833 835 836 838 840 841 843 845 846 847 849 850 851 852 853 854 855 855 856 856
702 702 705 712 717 716 711 710 716 719 724 729 733 738 742 745 750 753 757 761 765 769 773 777 781 784 788 791 795 798 802 805 808 811 814 816 818 820 821 823 825 827 829 830 832 834 836 837 839 841 843 844 846 847 848 849 851 852 853 854 854 855 855
697 696 696 703 709 708 706 708 712 716 720 725 729 733 736 740 744 748 753 757 761 766 770 774 777 780 784 788 791 795 798 802 805 808 810 812 815 817 819 821 822 824 826 828 830 832 834 835 837 839 841 842 844 846 847 848 849 850 851 853 853 854 854
691 691 690 695 699 701 702 704 708 713 717 720 724 728 732 736 741 745 749 753 757 761 765 769 773 777 780 784 787 791 794 798 802 805 807 809 811 814 816 818 820 822 824 826 828 829 831 833 835 837 839 840 842 844 845 846 848 849 850 851 852 852 853
686 687 687 691 695 701 703 702 704 708 712 715 721 726 730 734 738 742 746 749 753 757 760 765 769 773 776 779 783 787 790 794 798 801 804 806 808 811 813 815 817 819 821 823 825 827 829 831 833 835 836 838 840 841 843 845 846 847 848 849 851 851 852
682 683 684 687 693 701 704 702 699 702 707 711 716 722 727 731 735 738 742 746 749 754 758 762 765 768 772 775 779 783 787 791 794 798 801 803 805 807 809 812 814 816 818 820 823 824 826 828 830 832 834 836 837 839 841 842 844 845 846 848 849 850 851
676 678 679 683 688 694 699 699 696 698 704 707 712 719 723 727 731 735 738 742 745 749 753 757 760 764 767 771 775 779 783 787 791 794 797 800 802 804 806 809 811 813 816 818 820 822 824 826 828 829 831 833 835 836 838 840 841 843 844 846 847 848 849
670 671 674 678 681 685 690 694 695 696 700 705 709 714 718 723 727 730 733 737 741 744 748 752 755 759 763 767 771 774 778 783 787 791 794 796 799 801 803 806 808 810 813 815 817 819 821 823 825 827 829 830 832 834 836 837 839 841 842 843 845 846 847
663 666 669 672 675 678 683 689 691 692 696 701 705 708 714 718 722 725 728 732 736 739 742 746 750 755 759 763 767 771 775 779 783 787 790 793 795 797 799 802 804 807 809 811 814 816 818 820 822 824 826 828 830 832 833 835 837 838 840 841 842 843 844
660 664 667 669 670 672 676 682 685 689 694 698 701 705 710 713 717 721 725 728 731 734 737 742 746 751 755 759 763 767 771 775 779 782 785 788 791 793 796 798 801 803 805 808 810 812 815 817 819 822 823 825 827 829 831 833 834 836 837 838 840 841 842
660 663 665 667 669 670 673 677 682 687 690 694 698 701 705 709 713 717 720 723 726 729 734 738 742 746 750 754 759 763 767 771 774 777 780 783 786 789 792 794 797 799 802 804 807 809 811 814 816 818 820 822 824 826 828 830 832 833 835 836 837 839 840
661 662 663 666 668 670 672 675 680 684 687 691 694 697 702 706 710 713 717 720 723 727 730 734 737 741 745 750 754 758 762 766 769 772 775 779 781 784 788 790 793 796 798 801 803 805 808 810 813 815 817 819 821 823 825 827 829 830 832 834 835 836 837
664 664 664 666 668 671 672 673 678 681 684 688 692 695 699 703 707 710 714 717 721 724 727 731 734 737 741 745 749 753 757 760 763 767 770 774 777 781 784 786 789 791 794 797 800 802 804 806 809 811 813 816 818 820 822 824 826 828 829 831 832 833 835
670 668 669 671 673 674 674 675 678 680 683 686 690 693 696 700 704 707 710 715 718 721 724 727 730 733 737 741 744 748 751 755 759 763 767 771 774 777 780 783 785 788 791 794 796 798 800 802 805 808 810 812 814 816 818 820 822 824 826 828 829 831 832
673 670 671 674 676 676 677 677 678 680 682 684 687 690 693 697 701 704 708 711 714 717 720 723 727 730 733 737 740 743 747 752 756 760 764 768 771 774 777 779 782 784 787 790 792 795 797 799 802 804 806 809 811 813 815 817 818 820 822 824 826 827 829
675 671 670 673 676 676 676 677 677 679 682 683 686 688 690 694 698 701 704 707 710 714 716 720 724 727 730 733 736 740 745 749 753 757 760 764 767 770 773 776 779 781 784 786 789 791 794 796 798 801 803 805 807 809 811 813 814 815 817 819 821 823 825
682 680 678 678 678 677 677 678 678 680 682 683 684 686 688 691 694 698 701 704 708 710 713 717 720 723 727 730 734 738 742 746 749 753 756 760 764 767 770 773 776 778 780 783 786 788 790 793 795 797 799 802 804 806 807 808 810 811 813 815 817 820 822
688 687 685 684 682 681 681 680 678 679 681 681 682 684 687 689 692 695 698 701 704 707 710 714 717 721 725 729 732 735 738 742 746 749 753 757 760 764 767 770 773 775 778 780 782 785 787 789 792 794 796 798 800 802 804 805 806 807 809 812 814 816 818
692 690 688 686 685 685 685 680 676 676 677 678 680 682 683 685 688 691 694 698 702 705 708 711 715 720 723 726 730 733 735 739 742 746 749 753 756 760 763 767 770 772 774 777 779 782 784 786 789 791 793 795 797 798 800 802 803 804 806 808 810 813 815
694 694 692 690 688 688 687 682 678 676 674 675 677 679 681 683 686 689 693 697 701 704 706 709 713 717 721 724 727 730 734 737 739 743 746 749 753 756 759 763 766 769 772 775 777 779 781 783 785 788 790 792 793 795 797 798 799 801 803 805 807 810 812
694 694 694 692 689 689 687 684 681 678 675 674 674 675 679 681 683 687 690 694 697 701 703 707 711 715 719 722 725 728 731 734 737 740 743 746 749 752 756 759 763 766 769 772 774 776 778 780 783 784 786 788 790 792 794 795 796 798 800 802 804 807 810
694 692 691 689 687 686 684 682 680 678 676 675 672 671 674 677 679 683 687 690 694 698 701 705 708 712 715 719 721 725 728 731 735 737 740 743 746 749 752 756 759 763 766 769 771 773 776 778 779 781 783 785 787 789 790 792 793 795 797 799 802 805 807
694 691 689 685 683 681 679 678 677 675 674 673 671 669 669 672 676 679 683 687 691 695 698 701 704 708 711 715 718 721 725 728 731 734 737 740 743 746 749 752 755 759 762 765 768 770 772 774 776 778 780 781 783 785 787 789 790 791 793 795 798 801 804
693 691 687 684 681 679 676 674 672 671 670 669 669 667 665 668 672 675 679 683 686 691 694 697 700 703 707 710 714 717 721 724 727 730 733 736 739 742 745 748 752 755 758 761 764 766 768 771 773 775 776 778 779 781 783 785 786 787 789 792 794 797 800
694 691 687 684 681 677 674 672 670 669 667 665 665 664 663 665 668 672 675 679 682 687 690 692 695 698 702 706 710 714 718 721 724 726 729 733 736 739 742 745 749 752 755 758 760 763 765 767 769 771 772 774 775 777 779 781 782 783 785 787 790 793 796
696 692 688 683 680 676 673 670 668 666 663 661 661 661 661 663 665 668 672 676 679 682 684 687 690 694 699 703 707 711 714 717 720 723 726 729 733 736 740 742 745 748 751 754 757 759 761 763 765 767 769 771 772 773 775 777 778 779 781 783 786 789 792
698 693 689 684 680 677 673 669 665 662 659 658 658 659 659 660 663 666 670 674 676 678 680 683 688 692 697 700 703 707 710 714 717 720 723 727 730 734 737 739 742 745 747 750 753 756 758 760 762 763 765 767 768 770 771 773 774 775 777 779 782 785 788
698 695 691 685 681 677 672 666 663 659 657 656 656 656 657 659 661 665 668 671 673 675 678 683 687 690 694 697 700 703 707 710 714 717 721 724 727 730 733 736 739 741 744 747 749 752 754 757 758 760 762 763 765 766 767 769 771 772 774 776 778 781 784
701 696 691 685 681 677 671 667 662 658 655 654 654 655 656 657 660 664 667 669 672 675 679 682 685 688 691 694 697 700 704 708 711 714 718 721 724 727 730 732 735 738 741 743 746 748 751 753 755 757 758 760 761 763 764 766 768 769 770 773 775 777 780
702 697 692 687 681 676 672 666 661 657 654 653 652 654 655 657 660 663 666 669 673 676 679 681 684 687 690 692 695 698 702 705 708 712 715 718 722 725 727 730 733 735 738 740 743 745 748 750 752 754 755 757 758 759 761 764 765 766 767 769 772 774 776
704 698 693 688 683 677 671 664 658 656 654 652 652 654 656 658 661 663 666 670 673 676 678 680 683 685 687 690 693 696 699 703 706 710 713 716 719 722 724 727 730 732 735 737 739 742 744 746 749 750 752 754 755 756 758 760 762 763 764 766 769 771 772
704 699 694 689 683 678 672 664 659 658 656 653 652 654 657 659 661 663 666 670 672 674 676 679 681 684 686 688 691 694 697 700 703 707 711 714 717 719 722 724 727 729 732 734 736 738 740 742 744 746 748 750 751 753 754 756 758 759 760 761 764 766 768
705 700 695 691 686 681 675 669 664 662 660 657 655 655 657 659 661 663 666 669 670 672 675 677 680 682 684 687 689 692 695 697 700 705 708 711 714 717 719 722 724 726 728 730 732 734 736 738 740 741 744 746 748 750 751 752 754 755 756 757 759 761 763
706 701 697 693 688 684 679 675 670 667 664 662 660 659 659 660 661 663 665 667 668 670 673 676 678 680 683 685 687 690 692 694 698 702 705 708 711 713 716 718 720 722 724 726 728 730 732 734 736 737 739 742 744 746 747 748 749 750 752 752 754 756 759
707 704 699 695 691 687 683 679 675 672 669 666 665 664 663 662 662 663 665 666 667 669 671 674 676 678 681 683 685 687 689 692 696 699 702 705 708 710 711 713 715 718 720 723 725 726 728 729 731 734 736 738 740 741 743 744 744 746 748 749 750 753 755
709 705 700 696 693 689 685 683 679 676 673 671 670 669 668 666 665 665 665 666 666 668 670 672 674 676 678 680 682 684 686 689 693 696 699 701 704 706 708 711 713 715 717 719 721 722 725 726 728 730 732 735 737 738 739 741 742 744 745 747 748 751 753
711 707 703 698 694 691 688 685 682 679 676 675 674 673 671 670 669 669 669 668 667 668 669 671 673 674 675 677 679 681 684 687 690 693 696 698 701 703 706 709 712 714 716 717 719 721 723 725 726 729 731 732 734 735 737 739 741 742 744 745 747 749 751
713 710 706 700 696 694 692 689 686 683 681 679 679 676 674 673 673 672 672 671 668 668 669 670 671 672 673 674 676 679 682 685 688 691 694 696 698 701 704 707 711 713 715 717 718 720 722 724 726 728 730 731 732 734 736 738 740 742 743 745 746 748 750